TimeEST,TemperatureF,Dew PointF,Humidity,Sea Level PressureIn,VisibilityMPH,Wind Direction,Wind SpeedMPH,Gust SpeedMPH,PrecipitationIn,Events,Conditions,WindDirDegrees,DateUTC
12:15 AM,46.6,37.6,71,30.06,10.0,NW,3.5,-,N/A,,Mostly Cloudy,320,2013-11-03 04:15:00
12:35 AM,46.4,37.8,72,30.06,10.0,NNW,5.8,-,N/A,,Scattered Clouds,330,2013-11-03 04:35:00
12:55 AM,47.1,38.5,72,30.06,10.0,NNW,5.8,-,N/A,,Mostly Cloudy,340,2013-11-03 04:55:00
1:15 AM,47.3,38.8,72,30.06,10.0,NNW,3.5,-,N/A,,Overcast,330,2013-11-03 05:15:00
1:35 AM,47.3,39.2,73,30.06,10.0,NNW,6.9,-,N/A,,Overcast,330,2013-11-03 05:35:00
1:55 AM,47.1,39.2,74,30.06,10.0,NNW,5.8,-,N/A,,Overcast,340,2013-11-03 05:55:00
1:15 AM,46.2,39.2,76,30.06,10.0,NNW,4.6,-,N/A,,Mostly Cloudy,330,2013-11-03 06:15:00
1:35 AM,45.3,39.0,79,30.06,10.0,NNW,3.5,-,N/A,,Clear,330,2013-11-03 06:35:00
1:55 AM,44.8,38.8,80,30.06,10.0,North,3.5,-,N/A,,Clear,350,2013-11-03 06:55:00
2:15 AM,45.1,38.7,78,30.06,10.0,Calm,Calm,-,N/A,,Clear,0,2013-11-03 07:15:00
2:35 AM,45.0,38.7,79,30.07,10.0,North,4.6,-,N/A,,Clear,360,2013-11-03 07:35:00
2:55 AM,45.0,38.7,79,30.07,10.0,Calm,Calm,-,N/A,,Clear,0,2013-11-03 07:55:00
3:15 AM,45.0,38.7,79,30.09,10.0,NNW,6.9,-,N/A,,Clear,340,2013-11-03 08:15:00
3:35 AM,44.6,38.3,79,30.09,10.0,Calm,Calm,-,N/A,,Clear,0,2013-11-03 08:35:00
3:55 AM,44.4,38.3,79,30.09,10.0,WNW,3.5,-,N/A,,Scattered Clouds,290,2013-11-03 08:55:00
4:15 AM,44.6,38.5,79,30.09,10.0,North,5.8,-,N/A,,Scattered Clouds,10,2013-11-03 09:15:00
4:35 AM,44.6,38.5,79,30.10,10.0,NNW,4.6,-,N/A,,Clear,330,2013-11-03 09:35:00
4:55 AM,43.3,38.7,84,30.11,10.0,NW,5.8,-,N/A,,Mostly Cloudy,320,2013-11-03 09:55:00
5:15 AM,43.3,38.7,84,30.12,10.0,WNW,4.6,-,N/A,,Mostly Cloudy,300,2013-11-03 10:15:00
5:35 AM,42.3,38.7,87,30.14,10.0,WNW,4.6,-,N/A,,Scattered Clouds,290,2013-11-03 10:35:00
5:55 AM,41.9,38.7,88,30.15,10.0,NW,4.6,-,N/A,,Scattered Clouds,310,2013-11-03 10:55:00
6:15 AM,42.3,38.3,86,30.16,10.0,NNW,3.5,-,N/A,,Scattered Clouds,330,2013-11-03 11:15:00
6:35 AM,41.7,38.3,88,30.16,10.0,Calm,Calm,-,N/A,,Scattered Clouds,0,2013-11-03 11:35:00
6:55 AM,39.6,37.6,93,30.17,10.0,Calm,Calm,-,N/A,,Scattered Clouds,0,2013-11-03 11:55:00
7:15 AM,40.5,38.5,93,30.18,10.0,Calm,Calm,-,N/A,,Mostly Cloudy,0,2013-11-03 12:15:00
7:35 AM,40.5,39.2,95,30.20,10.0,West,3.5,-,N/A,,Overcast,260,2013-11-03 12:35:00
7:55 AM,41.5,39.6,93,30.22,10.0,WNW,3.5,-,N/A,,Overcast,290,2013-11-03 12:55:00
8:15 AM,43.0,39.6,88,30.23,10.0,Calm,Calm,-,N/A,,Overcast,0,2013-11-03 13:15:00
8:35 AM,44.1,41.0,89,30.24,10.0,Calm,Calm,-,N/A,,Overcast,0,2013-11-03 13:35:00
8:55 AM,45.1,39.9,82,30.24,10.0,WNW,3.5,-,N/A,,Overcast,300,2013-11-03 13:55:00
9:15 AM,46.0,39.4,78,30.24,10.0,West,3.5,-,N/A,,Overcast,280,2013-11-03 14:15:00
9:35 AM,46.6,37.9,72,30.25,10.0,North,5.8,-,N/A,,Overcast,350,2013-11-03 14:35:00
9:55 AM,47.7,37.2,67,30.26,10.0,NE,3.5,-,N/A,,Mostly Cloudy,50,2013-11-03 14:55:00
10:15 AM,47.5,37.0,67,30.26,10.0,North,8.1,-,N/A,,Mostly Cloudy,350,2013-11-03 15:15:00
10:35 AM,47.3,37.0,68,30.27,10.0,North,5.8,-,N/A,,Overcast,360,2013-11-03 15:35:00
10:55 AM,48.2,36.1,63,30.27,10.0,North,5.8,-,N/A,,Overcast,10,2013-11-03 15:55:00
11:15 AM,48.9,36.5,62,30.28,10.0,NNE,3.5,-,N/A,,Overcast,20,2013-11-03 16:15:00
11:35 AM,48.4,36.9,64,30.28,10.0,ENE,8.1,-,N/A,,Overcast,60,2013-11-03 16:35:00
11:55 AM,48.4,37.6,66,30.28,10.0,NE,3.5,-,N/A,,Overcast,40,2013-11-03 16:55:00
12:15 PM,48.4,38.7,69,30.27,10.0,ESE,4.6,-,N/A,,Overcast,120,2013-11-03 17:15:00
12:35 PM,47.5,37.9,69,30.28,10.0,NE,3.5,-,N/A,,Overcast,50,2013-11-03 17:35:00
12:55 PM,48.6,38.3,68,30.27,10.0,Calm,Calm,-,N/A,,Overcast,0,2013-11-03 17:55:00
1:15 PM,48.4,37.6,66,30.27,10.0,Calm,Calm,-,N/A,,Overcast,0,2013-11-03 18:15:00
1:35 PM,52.0,36.7,56,30.26,10.0,Calm,Calm,-,N/A,,Overcast,0,2013-11-03 18:35:00
1:55 PM,50.0,35.6,58,30.26,10.0,Calm,Calm,-,N/A,,Overcast,0,2013-11-03 18:55:00
2:15 PM,50.5,35.6,57,30.26,10.0,Calm,Calm,-,N/A,,Overcast,0,2013-11-03 19:15:00
2:35 PM,50.9,36.1,57,30.26,10.0,Calm,Calm,-,N/A,,Overcast,0,2013-11-03 19:35:00
2:55 PM,50.0,35.6,58,30.26,10.0,Calm,Calm,-,N/A,,Scattered Clouds,0,2013-11-03 19:55:00
3:15 PM,53.4,37.0,54,30.25,10.0,Calm,Calm,-,N/A,,Mostly Cloudy,0,2013-11-03 20:15:00
3:35 PM,53.1,36.1,53,30.25,10.0,Calm,Calm,-,N/A,,Overcast,0,2013-11-03 20:35:00
3:55 PM,52.7,35.1,51,30.25,10.0,ENE,3.5,-,N/A,,Mostly Cloudy,60,2013-11-03 20:55:00
4:15 PM,52.0,34.3,51,30.25,10.0,Calm,Calm,-,N/A,,Scattered Clouds,0,2013-11-03 21:15:00
4:35 PM,51.8,34.3,51,30.25,10.0,Calm,Calm,-,N/A,,Clear,0,2013-11-03 21:35:00
4:55 PM,50.4,33.8,53,30.26,10.0,Calm,Calm,-,N/A,,Clear,0,2013-11-03 21:55:00
5:15 PM,50.0,33.8,54,30.26,10.0,Calm,Calm,-,N/A,,Clear,0,2013-11-03 22:15:00
5:35 PM,46.8,35.6,65,30.27,10.0,Calm,Calm,-,N/A,,Clear,0,2013-11-03 22:35:00
5:55 PM,45.7,35.4,67,30.28,10.0,Calm,Calm,-,N/A,,Clear,0,2013-11-03 22:55:00
6:15 PM,43.9,35.6,73,30.29,10.0,Calm,Calm,-,N/A,,Clear,0,2013-11-03 23:15:00
6:35 PM,41.9,36.0,79,30.30,10.0,Calm,Calm,-,N/A,,Clear,0,2013-11-03 23:35:00
6:55 PM,42.1,35.6,78,30.31,10.0,Calm,Calm,-,N/A,,Clear,0,2013-11-03 23:55:00
7:15 PM,41.9,35.2,77,30.32,10.0,Calm,Calm,-,N/A,,Clear,0,2013-11-04 00:15:00
7:35 PM,40.8,34.7,79,30.32,10.0,Calm,Calm,-,N/A,,Clear,0,2013-11-04 00:35:00
7:55 PM,41.0,34.3,77,30.32,10.0,Calm,Calm,-,N/A,,Clear,0,2013-11-04 00:55:00
8:15 PM,40.1,34.0,79,30.32,10.0,East,3.5,-,N/A,,Clear,80,2013-11-04 01:15:00
8:35 PM,42.8,34.0,71,30.32,10.0,East,4.6,-,N/A,,Clear,80,2013-11-04 01:35:00
8:55 PM,39.2,34.2,82,30.32,10.0,East,4.6,-,N/A,,Clear,90,2013-11-04 01:55:00
9:15 PM,41.4,33.8,74,30.33,10.0,East,5.8,-,N/A,,Clear,80,2013-11-04 02:15:00
9:35 PM,41.0,33.8,76,30.32,10.0,East,6.9,-,N/A,,Clear,80,2013-11-04 02:35:00
9:55 PM,40.5,33.8,77,30.33,10.0,East,6.9,-,N/A,,Clear,100,2013-11-04 02:55:00
10:15 PM,40.1,33.4,77,30.33,10.0,East,8.1,-,N/A,,Clear,90,2013-11-04 03:15:00
10:35 PM,39.6,33.8,80,30.32,10.0,East,9.2,-,N/A,,Clear,100,2013-11-04 03:35:00
10:55 PM,39.7,33.8,79,30.32,10.0,East,10.4,-,N/A,,Clear,90,2013-11-04 03:55:00